Flag for Poland Weather past 2 weeks in Włocławek, Poland

Now
28 °F

Chilly.


Feels Like: 22 °F
Forecast: 34 / 51 °F
Wind: 5 mph from Southeast

Location: Plock

Current Time: Oct 25, 2014 at 9:21:44 AM

Latest Report: Oct 25, 2014 at 8:00 AM


Visibility: 11 mi

Pressure: 30.34 "Hg

Humidity: 73%

Dew point: 20 °F

Location of WłocławekLocation

Historic Weather in Włocławek — Graph

°F

Włocławek temperature yesterday

Maximum temperature yesterday: 40 °F (at 4:00 PM)
Minimum temperature yesterday: 28 °F (at 7:00 AM)
Average temperature yesterday: 33 °F

Past Weeks' High & Low Weather Summary

 TemperatureHumidityPressure
High71 °F (Oct 10, 4:00 PM)99% (Oct 13, 5:00 AM)30.42 "Hg (Oct 13, 5:00 AM)
Low27 °F (Oct 25, 7:00 AM)49% (Oct 24, 4:00 PM)29.54 "Hg (Oct 22, 5:00 AM)
Average52 °F87%29.95 "Hg
* Reported Oct 10 8:00 AM — Oct 25 8:00 AM, Włocławek, Weather by CustomWeather, © 2014

Note: Actual official high and low records may vary slightly from our data, if they occured in-between our weather recording intervals... More about our weather records

Advertising

Włocławek weather history for previous 24 hours

 ConditionsComfort  
Time TempWeatherWind HumidityBarometerVisibility
8:00 AM
Oct 25
28 °FChilly.5 mph73%30.34 "Hg11 mi
7:00 AM27 °FChilly.5 mph71%30.34 "Hg12 mi
6:00 AM28 °FChilly.5 mph69%30.35 "Hg12 mi
5:00 AM29 °FChilly.5 mph67%30.36 "Hg14 mi
4:00 AM29 °FChilly.5 mph68%30.36 "Hg12 mi
3:00 AM29 °FChilly.3 mph70%30.38 "Hg11 mi
2:00 AM29 °FChilly.3 mph71%30.39 "Hg11 mi
1:00 AM30 °FChilly.5 mph68%30.39 "Hg12 mi
12:00 AM30 °FChilly.5 mph68%30.40 "Hg11 mi
11:00 PM
Oct 24
31 °FChilly.5 mph68%30.40 "Hg11 mi
10:00 PM31 °FChilly.5 mph69%30.40 "Hg10 mi
9:00 PM32 °FChilly.3 mph69%30.40 "Hg11 mi
8:00 PM32 °FFog.2 mph67%30.39 "Hg7 mi
7:00 PM33 °FChilly.3 mph66%30.39 "Hg8 mi
6:00 PM35 °FChilly.2 mph62%30.39 "Hg11 mi
5:00 PM38 °FChilly.3 mph55%30.38 "Hg11 mi
4:00 PM40 °FQuite cool.6 mph49%30.38 "Hg12 mi
3:00 PM40 °FChilly.5 mph54%30.39 "Hg14 mi
2:00 PM38 °FChilly.5 mph56%30.40 "Hg15 mi
1:00 PM37 °FChilly.5 mph60%30.41 "Hg13 mi
12:00 PM35 °FChilly.3 mph63%30.42 "Hg17 mi
11:00 AM33 °FChilly.N/A65%30.42 "Hg16 mi
10:00 AM31 °FChilly.6 mph67%30.42 "Hg19 mi
9:00 AM29 °FChilly.5 mph71%30.40 "Hg19 mi
Weather by CustomWeather, © 2014

See weather overviewHow to use our weather pages